User: anonymous   Login
Location: Lugrin
(46.4033°N, 6.6674°E)
Time: 05:04:01
(UTC+00:00)
Language:

SPOT 5 - Orbit

View from above orbital plane
View from above orbital plane
View from above satellite
View from above satellite

Ground track
Ground track

The orbit data is extracted from the following two-line orbital elements,

1 27421U 02021A   20333.75789737  .00000084  00000-0  29447-4 0  9997
2 27421  98.2557  42.0334 0136143  60.5676 300.9021 14.52064501968598
Epoch (UTC): 28 November 2020 18:11:22
Eccentricity: 0.0136143
inclination: 98.2557°
perigee height: 622 km
apogee height: 815 km
right ascension of ascending node: 42.0334°
argument of perigee: 60.5676°
revolutions per day: 14.52064501
mean anomaly at epoch: 300.9021°
orbit number at epoch: 96859

The dashed part of the orbit path shows where the satellite is in the earth's shadow,  

DLR